FW8870 Weather Reports


Display with metric or nautical units.
time (UTC)temp
F
wind
direction
speed
MPH
gust
MPH
rain 1hr
in
rain 24hr
in
rain mn
in
humidity
%
barometer
mb
20260506123708 52 346 0.0 0.0 0.00 0.00 0.00 96 1020.3
20260506123207 52 17 0.0 0.0 0.00 0.00 0.00 96 1020.2
20260506122703 52 106 0.0 0.0 0.00 0.00 0.00 96 1020.2
20260506122201 52 355 0.0 0.0 0.00 0.00 0.00 95 1019.9
20260506121658 52 282 0.0 0.0 0.00 0.00 0.00 95 1019.7
20260506121154 52 102 0.0 0.0 0.00 0.00 0.00 95 1019.8
20260506120653 52 347 0.0 0.0 0.00 0.00 0.00 95 1019.8
20260506120150 52 126 0.0 0.0 0.00 0.00 0.00 95 1019.8
20260506115648 52 144 0.0 0.0 0.00 0.00 0.00 95 1019.5
20260506115146 52 186 1.0 2.0 0.00 0.00 0.00 95 1019.6
20260506114643 52 309 0.0 0.0 0.00 0.00 0.00 95 1019.9
20260506114141 52 159 0.0 0.0 0.00 0.00 0.00 95 1019.8
20260506113639 52 130 0.0 0.0 0.00 0.00 0.00 95 1019.6
20260506113136 52 335 0.0 0.0 0.00 0.00 0.00 95 1019.6
20260506112632 52 138 0.0 0.0 0.00 0.00 0.00 95 1019.6
20260506112130 53 89 0.0 0.0 0.00 0.00 0.00 95 1019.7
20260506111627 52 336 0.0 0.0 0.00 0.00 0.00 95 1019.6
20260506111125 53 84 0.0 0.0 0.00 0.00 0.00 94 1019.6
20260506110622 53 205 0.0 0.0 0.00 0.00 0.00 93 1019.4
20260506110119 53 40 0.0 0.0 0.00 0.00 0.00 94 1019.3
20260506105616 53 111 0.0 0.0 0.00 0.00 0.00 94 1019.0
20260506105113 53 46 0.0 0.0 0.00 0.00 0.00 94 1019.2
20260506104611 53 117 0.0 0.0 0.00 0.00 0.00 94 1019.1
20260506104108 53 188 0.0 0.0 0.00 0.00 0.00 94 1018.9
20260506103605 53 143 0.0 0.0 0.00 0.00 0.00 93 1018.8
20260506103102 53 169 1.0 2.0 0.00 0.00 0.00 93 1018.7
20260506102600 53 119 1.0 2.0 0.00 0.00 0.00 93 1018.9
20260506102057 53 14 2.0 5.0 0.00 0.00 0.00 93 1018.7
20260506101554 53 171 0.0 0.0 0.00 0.00 0.00 92 1018.7
20260506101051 53 186 0.0 2.0 0.00 0.00 0.00 92 1018.8
20260506100549 54 56 0.0 0.0 0.00 0.00 0.00 92 1018.6
20260506100047 54 325 0.0 0.0 0.00 0.00 0.00 92 1018.6
20260506095546 54 288 0.0 0.0 0.00 0.00 0.00 92 1018.6
20260506095042 54 85 1.0 3.0 0.00 0.00 0.00 92 1018.3
20260506094539 54 159 1.0 5.0 0.00 0.00 0.00 92 1018.6
20260506094037 54 329 0.0 0.0 0.00 0.00 0.00 91 1018.5
20260506093535 54 82 0.0 0.0 0.00 0.00 0.00 91 1018.6
20260506093032 55 65 0.0 0.0 0.00 0.00 0.00 91 1018.5
20260506092530 54 8 0.0 0.0 0.00 0.00 0.00 91 1018.4
20260506092027 54 352 0.0 0.0 0.00 0.00 0.00 92 1018.4
20260506091525 54 111 0.0 0.0 0.00 0.00 0.00 92 1018.1
20260506091022 55 146 0.0 0.0 0.00 0.00 0.00 91 1018.3
20260506090520 55 23 0.0 0.0 0.00 0.00 0.00 91 1018.2
20260506090016 55 21 0.0 0.0 0.00 0.00 0.00 91 1018.5
20260506085513 55 350 0.0 0.0 0.00 0.00 0.00 91 1018.2
20260506085009 55 45 0.0 0.0 0.00 0.00 0.00 91 1018.1
20260506084506 55 117 0.0 0.0 0.00 0.00 0.00 91 1018.1
20260506084002 55 10 0.0 1.0 0.00 0.00 0.00 91 1018.2
20260506083500 55 164 0.0 0.0 0.00 0.00 0.00 91 1018.3
20260506082957 55 7 0.0 0.0 0.00 0.00 0.00 90 1018.0
20260506082454 56 123 0.0 0.0 0.00 0.00 0.00 90 1018.0
20260506081949 56 141 0.0 0.0 0.00 0.00 0.00 89 1018.1
20260506081448 56 180 1.0 2.0 0.00 0.00 0.00 89 1018.0
20260506080945 56 334 0.0 0.0 0.00 0.00 0.00 89 1018.0
20260506080442 56 340 0.0 0.0 0.00 0.00 0.00 89 1017.9
20260506073426 57 245 0.0 0.0 0.00 0.00 0.00 88 1017.6
20260506072923 57 111 0.0 0.0 0.00 0.00 0.00 88 1017.6
20260506072420 57 41 5.0 8.0 0.00 0.00 0.00 88 1017.6
20260506071918 57 111 0.0 0.0 0.00 0.00 0.00 89 1017.5
20260506071416 58 25 0.0 0.0 0.00 0.00 0.00 88 1017.6
20260506070912 58 84 0.0 0.0 0.00 0.00 0.00 87 1017.5
20260506070409 58 82 0.0 0.0 0.00 0.00 0.00 87 1017.4
20260506062347 58 198 0.0 2.0 0.00 0.00 0.00 87 1016.9
20260506061842 58 237 0.0 0.0 0.00 0.00 0.00 87 1016.9
20260506061339 58 349 0.0 0.0 0.00 0.00 0.00 87 1017.1
20260506060837 58 334 0.0 0.0 0.00 0.00 0.00 87 1017.1
20260506060335 58 133 0.0 0.0 0.00 0.00 0.00 87 1016.9
20260506051307 59 318 0.0 0.0 0.00 0.00 0.00 85 1016.8
20260506050805 59 60 0.0 0.0 0.00 0.00 0.00 86 1016.8
20260506050302 59 32 0.0 0.0 0.00 0.00 0.00 87 1016.8
20260506044752 57 335 0.0 0.0 0.00 0.00 0.00 90 1016.7
20260506044250 58 316 0.0 0.0 0.00 0.00 0.00 88 1016.4
20260506043747 58 302 0.0 0.0 0.00 0.00 0.00 87 1016.5
20260506043244 58 317 0.0 0.0 0.00 0.00 0.00 89 1016.4
20260506042743 58 340 0.0 0.0 0.00 0.00 0.00 88 1016.2
20260506042241 59 317 0.0 0.0 0.00 0.00 0.00 86 1016.2
20260506041739 60 343 0.0 0.0 0.00 0.00 0.00 82 1016.1
20260506041236 60 325 0.0 0.0 0.00 0.00 0.00 82 1016.2
20260506040733 60 345 0.0 0.0 0.00 0.00 0.00 85 1016.1
20260506040230 60 324 0.0 0.0 0.00 0.00 0.00 85 1015.8
20260506035727 60 357 0.0 0.0 0.00 0.00 0.00 84 1016.1
20260506035224 61 338 0.0 0.0 0.00 0.00 0.00 81 1015.8
20260506034721 61 339 0.0 0.0 0.00 0.00 0.00 82 1015.7
20260506034218 62 0 0.0 0.0 0.00 0.00 0.00 80 1015.7
20260506033715 62 338 0.0 0.0 0.00 0.00 0.00 81 1015.6
20260506033212 62 22 0.0 0.0 0.00 0.00 0.00 81 1015.5
20260506032709 62 334 0.0 0.0 0.00 0.00 0.00 80 1015.5
20260506032206 62 112 0.0 0.0 0.00 0.00 0.00 82 1015.5
20260506031703 62 354 0.0 0.0 0.00 0.00 0.00 82 1015.2
20260506031200 62 353 0.0 0.0 0.00 0.00 0.00 83 1015.5
20260506030658 61 314 0.0 0.0 0.00 0.00 0.00 85 1015.4
20260506030155 62 314 0.0 0.0 0.00 0.00 0.00 84 1015.3
20260506025652 62 314 0.0 0.0 0.00 0.00 0.00 84 1015.3
20260506025148 62 314 0.0 0.0 0.00 0.00 0.00 84 1015.4
20260506024646 62 317 0.0 0.0 0.00 0.00 0.00 83 1015.3
20260506024142 63 317 0.0 0.0 0.00 0.00 0.00 83 1015.1
20260506023638 63 323 0.0 0.0 0.00 0.00 0.00 82 1015.3
20260506023135 64 323 0.0 0.0 0.00 0.00 0.00 80 1015.4
20260506022633 64 10 0.0 0.0 0.00 0.00 0.00 78 1015.3
20260506022130 64 334 0.0 0.0 0.00 0.00 0.00 77 1015.4
20260506021628 64 319 0.0 0.0 0.00 0.00 0.00 76 1015.3
20260506021125 65 318 0.0 0.0 0.00 0.00 0.00 77 1015.4
20260506020622 65 286 0.0 0.0 0.00 0.00 0.00 75 1015.4
20260506020119 66 334 0.0 0.0 0.00 0.00 0.00 73 1015.2
20260506015617 66 338 0.0 0.0 0.00 0.00 0.00 73 1015.3
20260506015114 66 315 0.0 0.0 0.00 0.00 0.00 75 1015.0
20260506014611 66 328 0.0 0.0 0.00 0.00 0.00 73 1015.3
20260506014106 67 337 0.0 0.0 0.00 0.00 0.00 73 1015.1
20260506013605 67 348 0.0 0.0 0.00 0.00 0.00 71 1015.5
20260506013102 68 354 0.0 0.0 0.00 0.00 0.00 71 1015.3
20260506012558 69 307 0.0 0.0 0.00 0.00 0.00 72 1015.2
20260506012054 69 336 0.0 0.0 0.00 0.00 0.00 70 1015.4
20260506011553 68 357 0.0 0.0 0.00 0.00 0.00 70 1015.2
20260506011048 69 303 0.0 0.0 0.00 0.00 0.00 70 1015.1
20260506010548 69 304 0.0 0.0 0.00 0.00 0.00 69 1015.2
20260506010044 68 303 0.0 0.0 0.00 0.00 0.00 70 1015.1
20260506005541 68 327 0.0 0.0 0.00 0.00 0.00 70 1014.9
20260506005037 68 4 0.0 0.0 0.00 0.00 0.00 70 1015.1
20260506004535 68 4 0.0 0.0 0.00 0.00 0.00 71 1015.2
20260506004031 68 343 0.0 0.0 0.00 0.00 0.00 71 1015.1
20260506003528 68 29 0.0 0.0 0.00 0.00 0.00 71 1015.1
20260506003024 69 209 0.0 0.0 0.00 0.00 0.00 69 1015.0
20260506002520 70 344 0.0 0.0 0.00 0.00 0.00 69 1015.2
20260506002016 69 319 0.0 0.0 0.00 0.00 0.00 70 1015.4
20260506001512 70 277 0.0 0.0 0.00 0.00 0.00 68 1015.2
20260506001010 70 14 0.0 0.0 0.00 0.00 0.00 69 1015.2
20260506000507 70 301 0.0 0.0 0.00 0.00 0.00 68 1015.2
20260506000004 70 316 0.0 0.0 0.00 0.00 0.00 69 1015.3
20260505235502 71 300 0.0 0.0 0.00 0.00 0.00 69 1015.5
20260505234958 69 303 0.0 0.0 0.00 0.00 0.00 69 1015.3
20260505234456 70 276 0.0 0.0 0.00 0.00 0.00 67 1015.1
20260505233952 71 286 0.0 0.0 0.00 0.00 0.00 67 1015.3
20260505233450 69 333 0.0 0.0 0.00 0.00 0.00 72 1015.3
20260505232947 70 311 0.0 0.0 0.00 0.00 0.00 67 1015.4
20260505232445 70 66 0.0 0.0 0.00 0.00 0.00 69 1015.7
20260505231942 70 309 0.0 0.0 0.00 0.00 0.00 70 1015.6
20260505231439 70 182 0.0 0.0 0.00 0.00 0.00 69 1015.7
20260505230938 71 313 0.0 0.0 0.00 0.00 0.00 67 1015.6
20260505230435 70 1 0.0 0.0 0.00 0.00 0.00 68 1015.7
20260505225931 71 306 0.0 0.0 0.00 0.00 0.00 63 1015.6
20260505225428 72 298 0.0 0.0 0.00 0.00 0.00 61 1015.7
20260505224924 72 325 0.0 0.0 0.00 0.00 0.00 65 1015.6
20260505224421 71 304 0.0 0.0 0.00 0.00 0.00 65 1015.9
20260505223918 72 237 0.0 0.0 0.00 0.00 0.00 67 1015.8
20260505223415 71 307 0.0 0.0 0.00 0.00 0.00 67 1015.9
20260505222911 71 306 0.0 0.0 0.00 0.00 0.00 71 1015.9
20260505222408 71 237 0.0 0.0 0.00 0.00 0.00 66 1016.0
20260505221904 72 298 0.0 0.0 0.00 0.00 0.00 62 1015.9
20260505221402 71 267 1.0 3.0 0.00 0.00 0.00 65 1016.1
20260505220858 71 163 0.0 0.0 0.00 0.00 0.00 69 1016.0
20260505220355 71 322 0.0 0.0 0.00 0.00 0.00 66 1015.9
20260505215853 71 298 0.0 0.0 0.00 0.00 0.00 66 1016.0
20260505215351 71 345 0.0 1.0 0.00 0.00 0.00 69 1016.1
20260505214849 71 317 0.0 0.0 0.00 0.00 0.00 69 1016.1
20260505214346 71 302 0.0 0.0 0.00 0.00 0.00 67 1016.0
20260505213843 71 291 0.0 0.0 0.00 0.00 0.00 73 1016.1
20260505213341 70 320 0.0 0.0 0.00 0.00 0.00 72 1016.1
20260505212837 69 41 3.0 5.0 0.00 0.00 0.00 71 1016.1
20260505212334 69 340 3.0 6.0 0.00 0.00 0.00 70 1016.4
20260505211830 70 13 0.0 0.0 0.00 0.00 0.00 77 1016.3
20260505211328 69 13 0.0 0.0 0.00 0.00 0.00 72 1016.1
20260505210824 70 353 4.0 7.0 0.00 0.00 0.00 69 1016.3
20260505210321 69 311 0.0 0.0 0.00 0.00 0.00 70 1016.4
20260505205818 71 332 0.0 0.0 0.00 0.00 0.00 68 1016.5
20260505205316 71 287 0.0 0.0 0.00 0.00 0.00 70 1016.1
20260505204812 70 311 0.0 0.0 0.00 0.00 0.00 72 1016.3
20260505204311 70 324 0.0 0.0 0.00 0.00 0.00 72 1016.5
20260505203808 71 102 0.0 0.0 0.00 0.00 0.00 71 1016.4
20260505203304 71 45 0.0 0.0 0.00 0.00 0.00 74 1016.4
20260505202800 70 109 0.0 0.0 0.00 0.00 0.00 72 1016.3
20260505202257 70 297 0.0 0.0 0.00 0.00 0.00 70 1016.5
20260505201753 70 114 0.0 0.0 0.00 0.00 0.00 72 1016.5
20260505201251 70 336 0.0 0.0 0.00 0.00 0.00 74 1016.5
20260505200749 70 333 0.0 0.0 0.00 0.00 0.00 72 1016.5
20260505200246 69 315 0.0 0.0 0.00 0.00 0.00 75 1016.4
20260505195741 69 337 0.0 0.0 0.00 0.00 0.00 72 1016.5
20260505195239 69 311 1.0 3.0 0.00 0.00 0.00 71 1016.6
20260505194736 70 311 1.0 3.0 0.00 0.00 0.00 69 1016.2
20260505194232 70 288 0.0 0.0 0.00 0.00 0.00 72 1016.6
20260505193722 68 324 0.0 0.0 0.00 0.00 0.00 73 1016.5
20260505193220 69 172 0.0 0.0 0.00 0.00 0.00 74 1016.6
20260505192718 69 309 0.0 0.0 0.00 0.00 0.00 69 1016.6
20260505192215 69 34 0.0 0.0 0.00 0.00 0.00 72 1016.5
20260505191714 70 348 0.0 0.0 0.00 0.00 0.00 71 1016.6
20260505191212 70 147 0.0 0.0 0.00 0.00 0.00 74 1016.6
20260505190708 70 157 0.0 0.0 0.00 0.00 0.00 70 1016.5
20260505190207 69 321 0.0 0.0 0.00 0.00 0.00 71 1016.6
20260505185704 69 302 0.0 0.0 0.00 0.00 0.00 71 1016.5
20260505185201 70 141 0.0 0.0 0.00 0.00 0.00 70 1016.6
20260505184657 70 304 0.0 0.0 0.00 0.00 0.00 71 1016.7
20260505184154 69 29 0.0 1.0 0.00 0.00 0.00 70 1016.7
20260505183651 70 66 0.0 0.0 0.00 0.00 0.00 68 1016.8
20260505183149 69 130 0.0 0.0 0.00 0.00 0.00 75 1016.7
20260505182645 70 329 0.0 0.0 0.00 0.00 0.00 69 1016.5
20260505182142 69 358 0.0 0.0 0.00 0.00 0.00 71 1016.5
20260505181638 67 278 0.0 0.0 0.00 0.00 0.00 75 1016.8
20260505181136 68 327 0.0 0.0 0.00 0.00 0.00 71 1016.7
20260505180632 68 119 0.0 0.0 0.00 0.00 0.00 74 1016.6
20260505180129 67 339 0.0 0.0 0.00 0.00 0.00 69 1016.7
20260505175625 68 319 0.0 0.0 0.00 0.00 0.00 68 1016.7
20260505175122 69 345 1.0 2.0 0.00 0.00 0.00 68 1016.9
20260505174618 68 329 0.0 0.0 0.00 0.00 0.00 71 1016.7
20260505174114 67 332 0.0 0.0 0.00 0.00 0.00 69 1016.7
20260505173611 68 283 0.0 0.0 0.00 0.00 0.00 71 1016.9
20260505173108 68 310 0.0 0.0 0.00 0.00 0.00 72 1016.9
20260505172606 67 338 0.0 0.0 0.00 0.00 0.00 71 1016.7
20260505172102 67 326 0.0 0.0 0.00 0.00 0.00 71 1017.0
20260505171557 65 317 0.0 0.0 0.00 0.00 0.00 74 1016.8
20260505171054 64 338 0.0 0.0 0.00 0.00 0.00 75 1016.8
20260505170551 65 340 0.0 0.0 0.00 0.00 0.00 72 1016.9
20260505170047 64 332 0.0 0.0 0.00 0.00 0.00 73 1016.9
20260505165543 64 321 0.0 0.0 0.00 0.00 0.00 74 1016.9
20260505165039 64 80 0.0 0.0 0.00 0.00 0.00 74 1016.9
20260505164535 64 341 0.0 0.0 0.00 0.00 0.00 76 1016.9
20260505164032 64 342 0.0 0.0 0.00 0.00 0.00 73 1017.1
20260505163531 64 141 0.0 0.0 0.00 0.00 0.00 75 1017.1
20260505163027 63 53 0.0 0.0 0.00 0.00 0.00 77 1017.0
20260505162521 63 182 0.0 1.0 0.00 0.00 0.00 78 1016.9
20260505162018 62 320 0.0 0.0 0.00 0.00 0.00 76 1017.0
20260505161514 63 169 0.0 0.0 0.00 0.00 0.00 77 1017.0
20260505161012 62 300 0.0 0.0 0.00 0.00 0.00 77 1017.1
20260505160510 62 160 0.0 0.0 0.00 0.00 0.00 79 1016.8
20260505152946 60 107 0.0 0.0 0.00 0.00 0.00 83 1016.9
20260505152443 59 135 0.0 0.0 0.00 0.00 0.00 83 1017.0
20260505151943 59 154 0.0 0.0 0.00 0.00 0.00 82 1017.0
20260505151439 59 333 0.0 0.0 0.00 0.00 0.00 83 1017.1
20260505150937 58 143 0.0 1.0 0.00 0.00 0.00 84 1017.0
20260505150434 58 207 0.0 0.0 0.00 0.00 0.00 83 1016.9
20260505140404 55 34 0.0 0.0 0.00 0.00 0.00 88 1016.3
20260505124817 55 6 0.0 0.0 0.00 0.00 0.00 85 1015.4
20260505124314 55 6 0.0 0.0 0.00 0.00 0.00 86 1015.5